User: anonymous   Login
Location: Unspecified
(0.0000°N, 0.0000°E)
Time: 08:53:13
(UTC+00:00)
Language:

SES 19 - Orbit

View from above orbital plane
View from above orbital plane
View from above satellite
View from above satellite

Ground track
Ground track

The orbit is defined by the following mean orbital elements,

1 55971U          26145.55703498 +.00000000 +00000-0 +00000-0 0 00009
2 55971   0.0189 299.6506 0001650 119.7945 249.3262  1.00271350    09
Epoch (UTC): 25 May 2026 13:22:07
Eccentricity: 0.0001650
inclination: 0.0189°
perigee height: 35780 km
apogee height: 35794 km
right ascension of ascending node: 299.6506°
argument of perigee: 119.7945°
revolutions per day: 1.00271350
mean anomaly at epoch: 249.3262°

The dashed part of the orbit path shows where the satellite is in the earth's shadow,  

DLR